Regional Weather Roundup
Issued by NWS Sterling, VA

Home | Current Version | Previous Version | Text Only | Print | Product List | Glossary Off
Versions: 1 2 3 4 5 6 7 8 9 10 11 12 13 14 15 16 17 18 19 20 21 22 23 24 25 26 27 28 29 30 31 32 33 34 35 36 37 38 39 40 41 42 43 44 45 46 47 48 49 50

000
ASUS41 KLWX 250510
RWRLWX

REGIONAL WEATHER ROUNDUP
NATIONAL WEATHER SERVICE BALTIMORE MD/WASHINGTON DC
100 AM EDT MON MAY 25 2015

Note: "FAIR" indicates few or no clouds below 12,000 feet
with no significant weather and/or obstructions to visibility.
 TC=TEMPERATURE CELSIUS

 * =Non NWS site. Station does not report precipitation (e.g. rain,
    snow, etc.), thunder, or fog.

DCZ001-MDZ009-015-VAZ040>042-051-053>054-250600-
WASHINGTON METRO

CITY           SKY/WX    TMP DP  RH WIND       PRES   REMARKS
WASHINGTON NAT MOCLDY    72  59  63 S7        30.26F
DULLES         CLEAR     67  55  65 S7        30.25F
ANDREWS AFB    CLEAR     66  59  78 S7        30.26S
FT BELVOIR     CLEAR     62  57  85 SE2       30.26S
QUANTICO       CLEAR     71  56  58 SW6       30.27F
COLLEGE PARK*  CLEAR     63  61  94 CALM      30.26S
LEESBURG*      CLEAR     68  59  73 SW3       30.26S
MANASSAS*      CLEAR     64  57  77 CALM      30.26S
GAITHERSBURG*  PTCLDY    66  55  68 SE3       30.30F

$$

MDZ006>007-011-014-250600-
BALTIMORE METRO

CITY           SKY/WX    TMP DP  RH WIND       PRES   REMARKS
BWI AIRPORT    PTCLDY    65  60  84 CALM      30.25F
MD SCIENCE CTR   N/A     69  60  73 MISG      30.26F
MARTIN STATE   MOCLDY    68  63  83 S3        30.28F
ANNAPOLIS      PTCLDY    67  61  81 S6        30.26F
FORT MEADE*    PTCLDY    59  55  88 CALM      30.28F

$$

MDZ012-015-019>023-250600-
MARYLAND EASTERN SHORE

CITY           SKY/WX    TMP DP  RH WIND       PRES   REMARKS
OCEAN CITY     PTCLDY    65  55  70 SW9       30.31S
SALISBURY      CLEAR     60  53  77 S6        30.30F
BAY BRIDGE AP*   N/A    N/A N/A N/A S7        30.27F
CAMBRIDGE*     PTCLDY    64  59  82 S3        30.28F
EASTON*        PTCLDY    67  61  82 S5        30.31F

$$

MDZ017>025-250600-
SOUTHERN MARYLAND

CITY           SKY/WX    TMP DP  RH WIND       PRES   REMARKS
PATUXENT RIVER CLEAR     68  59  73 SW10      30.27F
ST INIGOES     CLEAR     68  60  75 S8        30.28F
LEONARDTOWN*   CLEAR     64  57  77 S5        30.29F

$$

MDZ003>005-250600-
NORTH CENTRAL MARYLAND

CITY           SKY/WX    TMP DP  RH WIND       PRES   REMARKS
FREDERICK*     PTCLDY    59  57  94 CALM      30.27F
HAGERSTOWN APT PTCLDY    70  53  54 S7        30.23F
WESTMINSTER*   PTCLDY    66  59  77 S5        30.27S

$$

MDZ501>502-250600-
WESTERN MARYLAND

CITY           SKY/WX    TMP DP  RH WIND       PRES   REMARKS
OAKLAND*       PTCLDY    59  55  88 S7        30.29F
CUMBERLAND*    PTCLDY    63  54  72 CALM      30.26F

$$

VAZ025>031-250600-
SHENANDOAH VALLEY

CITY           SKY/WX    TMP DP  RH WIND       PRES   REMARKS
WINCHESTER*    CLEAR     66  50  55 SW3       30.25S
FRONT ROYAL*   FAIR      64  54  68 S3        30.24F
LURAY*         FAIR      68  55  64 S6        30.26S
NEW MARKET*    FAIR      66  54  64 W7        30.25F
STAUNTON*      CLEAR     61  53  74 CALM      30.31S
WAYNESBORO*    FAIR      63  52  68 CALM      30.30S

$$

WVZ021-048>050-054>055-250600-
EASTERN WEST VIRGINIA PANHANDLE

CITY           SKY/WX    TMP DP  RH WIND       PRES   REMARKS
MARTINSBURG    PTCLDY    61  55  81 SW3       30.24S
PETERSBURG*    CLEAR     58  54  86 CALM      30.25S

$$

VAZ036>039-050-250600-
CENTRAL FOOTHILLS

CITY           SKY/WX    TMP DP  RH WIND       PRES   REMARKS
CHARLOTTESVILL CLEAR     65  55  70 S8        30.27F
CULPEPER*      CLEAR     62  55  77 CALM      30.27S
ORANGE*        CLEAR     63  55  77 CALM      30.29S
GORDONSVILLE*  FAIR      58  55  91 CALM      30.28S
WARRENTON*     FAIR      63  58  81 SW3       30.26S

$$

VAZ055>057-250600-
NORTH AND CENTRAL PIEDMONT

CITY           SKY/WX    TMP DP  RH WIND       PRES   REMARKS
FREDERICKSBRG* CLEAR     69  58  66 SW5       30.26F
STAFFORD*      CLEAR     65  55  70 CALM      30.31S

$$

NCZ024-NYZ072-PAZ021-071-VAZ022-071-250600-
OTHER REGIONAL OBSERVATIONS

CITY           SKY/WX    TMP DP  RH WIND       PRES   REMARKS
NEW YORK CITY  CLOUDY    68  50  52 W7        30.28S
PHILADELPHIA   CLOUDY    66  56  70 S7        30.28F
PITTSBURGH     MOCLDY    63  49  60 CALM      30.20S
ROANOKE        CLEAR     62  54  74 CALM      30.32F
RICHMOND       PTCLDY    67  57  70 S12       30.29F
RALEIGH        PTCLDY    68  57  68 S7        30.34S

$$

ANZ530>537-250600-
MARINE OBSERVATIONS

STATION/POSITION TIME  TEMP    WIND        PRES
                       AIR SEA DIR/SP/G
                 (UTC) (F)     (DEG/KT/KT) (MB)
THOMAS PT LIGHT  0500   67 66  170/ 13/ 14 1025.2F
BALT KEY BRIDGE  0400   68     130/  5/  6 1024.8F
LEWISETTA        0400   69 71              1025.5F
SOLOMONS ISLAND  0400      69                N/A
PINEY POINT      0400          200/  8/  9   N/A

$$




USA.gov is the U.S. government's official web portal to all federal, state and local government web resources and services.